Location: Buffign�court
(47.8126°N, 6.0176°E)
Time: 16:17:41
(UTC+00:00)

Cosmos 1340 - Pass Details

Date: 16 June 2021
Orbit: 498 x 504 km, 81.2° (Epoch: 03 August)

Event Time Altitude Azimuth Distance (km) Brightness Sun altitude
Exits shadow 20:51:57 14° 133° (SE) 1,500 4.4 -9.8°
Maximum altitude 20:54:08 21° 90° (E) 1,163 4.1 -10.0°
Drops below altitude 10° 20:57:03 10° 40° (NE) 1,725 5.5 -10.3°
Sets 20:59:32 0° 25° (NNE) 2,617 6.7 -10.5°
